Time,TemperatureF,DewpointF,PressureIn,WindDirection,WindDirectionDegrees,WindSpeedMPH,WindSpeedGustMPH,Humidity,HourlyPrecipIn,Conditions,Clouds,dailyrainin,SoftwareType,DateUTC
2013-12-22 00:01:00,47.5,23.8,29.53,West,266,0.0,0.0,39,0.00,,---,0.00,VWS V13.01,2013-12-22 05:01:00,
2013-12-22 00:02:00,47.7,23.9,29.53,West,266,0.0,0.0,39,0.00,,---,0.00,VWS V13.01,2013-12-22 05:02:00,
2013-12-22 00:03:00,47.7,23.9,29.53,West,266,0.0,0.0,39,0.00,,---,0.00,VWS V13.01,2013-12-22 05:03:00,
2013-12-22 00:08:00,48.0,24.9,29.53,West,266,0.0,0.0,40,0.00,,---,0.00,VWS V13.01,2013-12-22 05:08:00,
2013-12-22 00:13:00,48.0,24.3,29.53,West,266,0.0,0.0,39,0.00,,---,0.00,VWS V13.01,2013-12-22 05:13:00,
2013-12-22 00:18:00,47.8,24.1,29.53,West,266,0.0,0.0,39,0.00,,---,0.00,VWS V13.01,2013-12-22 05:18:00,
2013-12-22 00:23:00,47.8,24.7,29.53,West,266,0.0,0.0,40,0.00,,---,0.00,VWS V13.01,2013-12-22 05:23:00,
2013-12-22 00:28:00,48.7,26.1,29.53,WSW,250,0.0,0.0,41,0.00,,---,0.00,VWS V13.01,2013-12-22 05:28:00,
2013-12-22 00:33:00,48.9,26.3,29.53,WSW,254,0.0,0.0,41,0.00,,---,0.00,VWS V13.01,2013-12-22 05:33:00,
2013-12-22 00:38:00,49.1,27.0,29.53,WSW,254,0.0,0.0,42,0.00,,---,0.00,VWS V13.01,2013-12-22 05:38:00,
2013-12-22 00:43:00,49.5,27.3,29.53,WSW,254,0.0,0.0,42,0.00,,---,0.00,VWS V13.01,2013-12-22 05:43:00,
2013-12-22 00:49:00,49.3,26.6,29.53,WSW,254,0.0,0.0,41,0.00,,---,0.00,VWS V13.01,2013-12-22 05:49:00,
2013-12-22 00:54:00,49.6,27.5,29.53,WSW,254,0.0,0.0,42,0.00,,---,0.00,VWS V13.01,2013-12-22 05:54:00,
2013-12-22 00:59:00,49.8,27.7,29.53,South,183,0.0,0.0,42,0.00,,---,0.00,VWS V13.01,2013-12-22 05:59:00,
2013-12-22 01:04:00,49.6,27.5,29.53,SSW,202,0.0,0.0,42,0.00,,---,0.00,VWS V13.01,2013-12-22 06:04:00,
2013-12-22 01:09:00,49.5,26.8,29.53,SSW,202,0.0,0.0,41,0.00,,---,0.00,VWS V13.01,2013-12-22 06:09:00,
2013-12-22 01:14:00,49.6,28.1,29.53,WSW,258,0.0,0.0,43,0.00,,---,0.00,VWS V13.01,2013-12-22 06:14:00,
2013-12-22 01:19:00,49.6,28.1,29.53,WSW,245,0.0,0.0,43,0.00,,---,0.00,VWS V13.01,2013-12-22 06:19:00,
2013-12-22 01:24:00,49.8,28.2,29.53,WSW,243,0.0,0.0,43,0.00,,---,0.00,VWS V13.01,2013-12-22 06:24:00,
2013-12-22 01:29:00,49.3,27.2,29.53,SW,227,0.0,0.0,42,0.00,,---,0.00,VWS V13.01,2013-12-22 06:29:00,
2013-12-22 01:34:00,49.3,27.8,29.53,SW,227,0.0,0.0,43,0.00,,---,0.00,VWS V13.01,2013-12-22 06:34:00,
2013-12-22 01:39:00,49.5,28.5,29.53,SW,226,0.0,0.0,44,0.00,,---,0.00,VWS V13.01,2013-12-22 06:39:00,
2013-12-22 01:44:00,49.6,28.6,29.53,SSE,166,0.0,0.0,44,0.00,,---,0.00,VWS V13.01,2013-12-22 06:44:00,
2013-12-22 01:50:00,49.6,28.6,29.53,West,270,0.0,0.0,44,0.00,,---,0.00,VWS V13.01,2013-12-22 06:50:00,
2013-12-22 01:55:00,49.1,27.6,29.53,West,270,0.0,0.0,43,0.00,,---,0.00,VWS V13.01,2013-12-22 06:55:00,
2013-12-22 02:00:00,49.3,28.9,29.53,West,272,0.0,0.0,45,0.00,,---,0.00,VWS V13.01,2013-12-22 07:00:00,
2013-12-22 02:01:00,49.3,29.4,29.53,West,272,0.0,0.0,46,0.00,,---,0.00,VWS V13.01,2013-12-22 07:01:00,
2013-12-22 02:06:00,49.5,30.1,29.53,West,272,0.0,0.0,47,0.00,,---,0.00,VWS V13.01,2013-12-22 07:06:00,
2013-12-22 02:11:00,49.5,30.1,29.53,West,272,0.0,0.0,47,0.00,,---,0.00,VWS V13.01,2013-12-22 07:11:00,
2013-12-22 02:16:00,49.5,30.1,29.53,West,272,0.0,0.0,47,0.00,,---,0.00,VWS V13.01,2013-12-22 07:16:00,
2013-12-22 02:21:00,49.6,30.2,29.53,West,272,0.0,0.0,47,0.00,,---,0.00,VWS V13.01,2013-12-22 07:21:00,
2013-12-22 02:26:00,49.5,30.1,29.53,West,270,0.0,0.0,47,0.00,,---,0.00,VWS V13.01,2013-12-22 07:26:00,
2013-12-22 02:31:00,49.5,29.6,29.53,West,270,0.0,0.0,46,0.00,,---,0.00,VWS V13.01,2013-12-22 07:31:00,
2013-12-22 02:36:00,49.5,29.6,29.53,WSW,240,0.0,0.0,46,0.00,,---,0.00,VWS V13.01,2013-12-22 07:36:00,
2013-12-22 02:41:00,49.3,29.4,29.53,WSW,240,0.0,0.0,46,0.00,,---,0.00,VWS V13.01,2013-12-22 07:41:00,
2013-12-22 02:46:00,49.3,29.9,29.50,WSW,240,0.0,0.0,47,0.00,,---,0.00,VWS V13.01,2013-12-22 07:46:00,
2013-12-22 02:51:00,49.1,29.8,29.50,WSW,240,0.0,0.0,47,0.00,,---,0.00,VWS V13.01,2013-12-22 07:51:00,
2013-12-22 02:57:00,49.1,29.8,29.50,WSW,240,0.0,0.0,47,0.00,,---,0.00,VWS V13.01,2013-12-22 07:57:00,
2013-12-22 03:02:00,48.9,29.6,29.50,WSW,240,0.0,0.0,47,0.00,,---,0.00,VWS V13.01,2013-12-22 08:02:00,
2013-12-22 03:07:00,48.9,29.6,29.50,WSW,240,0.0,0.0,47,0.00,,---,0.00,VWS V13.01,2013-12-22 08:07:00,
2013-12-22 03:12:00,49.3,30.4,29.50,WSW,246,0.0,0.0,48,0.00,,---,0.00,VWS V13.01,2013-12-22 08:12:00,
2013-12-22 03:17:00,49.6,31.3,29.50,WSW,246,0.0,0.0,49,0.00,,---,0.00,VWS V13.01,2013-12-22 08:17:00,
2013-12-22 03:22:00,49.5,30.6,29.50,WSW,246,0.0,0.0,48,0.00,,---,0.00,VWS V13.01,2013-12-22 08:22:00,
2013-12-22 03:27:00,49.5,30.6,29.50,WSW,246,0.0,0.0,48,0.00,,---,0.00,VWS V13.01,2013-12-22 08:27:00,
2013-12-22 03:32:00,49.5,31.1,29.47,WSW,246,0.0,0.0,49,0.00,,---,0.00,VWS V13.01,2013-12-22 08:32:00,
2013-12-22 03:37:00,49.8,31.4,29.47,WSW,246,0.0,0.0,49,0.00,,---,0.00,VWS V13.01,2013-12-22 08:37:00,
2013-12-22 03:42:00,50.0,31.6,29.47,West,261,0.0,0.0,49,0.00,,---,0.00,VWS V13.01,2013-12-22 08:42:00,
2013-12-22 03:47:00,50.5,32.6,29.47,SW,229,0.0,0.0,50,0.00,,---,0.00,VWS V13.01,2013-12-22 08:47:00,
2013-12-22 03:53:00,50.4,31.9,29.47,SW,231,0.0,0.0,49,0.00,,---,0.00,VWS V13.01,2013-12-22 08:53:00,
2013-12-22 03:58:00,50.7,32.8,29.47,SW,231,0.0,0.0,50,0.00,,---,0.00,VWS V13.01,2013-12-22 08:58:00,
2013-12-22 04:03:00,50.9,32.9,29.47,SW,231,0.0,0.0,50,0.00,,---,0.00,VWS V13.01,2013-12-22 09:03:00,
2013-12-22 04:08:00,51.3,33.3,29.47,SSE,151,0.0,0.0,50,0.00,,---,0.00,VWS V13.01,2013-12-22 09:08:00,
2013-12-22 04:13:00,51.3,33.3,29.47,West,267,0.0,0.0,50,0.00,,---,0.00,VWS V13.01,2013-12-22 09:13:00,
2013-12-22 04:18:00,51.6,33.6,29.47,SSE,157,0.0,0.0,50,0.00,,---,0.00,VWS V13.01,2013-12-22 09:18:00,
2013-12-22 04:23:00,51.4,33.4,29.47,South,171,0.0,0.0,50,0.00,,---,0.00,VWS V13.01,2013-12-22 09:23:00,
2013-12-22 04:28:00,51.6,33.6,29.47,West,275,0.0,0.0,50,0.00,,---,0.00,VWS V13.01,2013-12-22 09:28:00,
2013-12-22 04:33:00,52.2,35.1,29.47,WSW,241,0.0,0.0,52,0.00,,---,0.00,VWS V13.01,2013-12-22 09:33:00,
2013-12-22 04:38:00,52.5,35.4,29.47,South,175,0.0,0.0,52,0.00,,---,0.00,VWS V13.01,2013-12-22 09:38:00,
2013-12-22 04:43:00,53.1,36.9,29.47,WSW,258,0.0,0.0,54,0.00,,---,0.00,VWS V13.01,2013-12-22 09:43:00,
2013-12-22 04:48:00,53.6,37.8,29.47,SW,224,0.0,0.0,55,0.00,,---,0.00,VWS V13.01,2013-12-22 09:48:00,
2013-12-22 04:53:00,53.6,38.3,29.47,WSW,256,0.0,0.0,56,0.00,,---,0.00,VWS V13.01,2013-12-22 09:53:00,
2013-12-22 04:59:00,54.0,38.6,29.47,SSE,147,0.0,0.0,56,0.00,,---,0.00,VWS V13.01,2013-12-22 09:59:00,
2013-12-22 05:04:00,54.1,39.3,29.47,SSW,202,0.0,0.0,57,0.00,,---,0.00,VWS V13.01,2013-12-22 10:04:00,
2013-12-22 05:09:00,54.5,40.0,29.47,South,172,0.0,0.0,58,0.00,,---,0.00,VWS V13.01,2013-12-22 10:09:00,
2013-12-22 05:14:00,54.9,40.8,29.47,NW,306,0.0,0.0,59,0.00,,---,0.00,VWS V13.01,2013-12-22 10:14:00,
2013-12-22 05:19:00,55.0,41.4,29.47,SSW,204,0.0,0.0,60,0.00,,---,0.00,VWS V13.01,2013-12-22 10:19:00,
2013-12-22 05:24:00,55.0,42.3,29.47,SW,231,0.0,0.0,62,0.00,,---,0.00,VWS V13.01,2013-12-22 10:24:00,
2013-12-22 05:29:00,55.4,43.0,29.44,SSE,162,0.0,0.0,63,0.00,,---,0.00,VWS V13.01,2013-12-22 10:29:00,
2013-12-22 05:34:00,55.4,43.4,29.44,SSE,166,0.0,0.0,64,0.00,,---,0.00,VWS V13.01,2013-12-22 10:34:00,
2013-12-22 05:39:00,55.0,43.1,29.44,South,175,0.0,0.0,64,0.00,,---,0.00,VWS V13.01,2013-12-22 10:39:00,
2013-12-22 05:44:00,54.9,42.9,29.44,West,267,0.0,0.0,64,0.00,,---,0.00,VWS V13.01,2013-12-22 10:44:00,
2013-12-22 05:49:00,54.9,42.9,29.44,SSE,161,0.0,0.0,64,0.00,,---,0.00,VWS V13.01,2013-12-22 10:49:00,
2013-12-22 05:55:00,55.6,44.0,29.44,SSW,204,0.0,0.0,65,0.00,,---,0.00,VWS V13.01,2013-12-22 10:55:00,
2013-12-22 06:00:00,55.4,43.8,29.44,West,260,0.0,0.0,65,0.00,,---,0.00,VWS V13.01,2013-12-22 11:00:00,
2013-12-22 06:05:00,55.8,44.6,29.44,WSW,253,0.0,0.0,66,0.00,,---,0.00,VWS V13.01,2013-12-22 11:05:00,
2013-12-22 06:10:00,55.2,44.1,29.44,SE,136,0.0,0.0,66,0.00,,---,0.00,VWS V13.01,2013-12-22 11:10:00,
2013-12-22 06:15:00,55.4,44.2,29.44,SSE,160,0.0,0.0,66,0.00,,---,0.00,VWS V13.01,2013-12-22 11:15:00,
2013-12-22 06:20:00,55.0,44.3,29.44,WSW,258,0.0,0.0,67,0.00,,---,0.00,VWS V13.01,2013-12-22 11:20:00,
2013-12-22 06:25:00,54.7,44.0,29.44,WSW,253,0.0,0.0,67,0.00,,---,0.00,VWS V13.01,2013-12-22 11:25:00,
2013-12-22 06:30:00,54.5,43.8,29.47,WSW,257,0.0,0.0,67,0.00,,---,0.00,VWS V13.01,2013-12-22 11:30:00,
2013-12-22 06:35:00,54.5,43.8,29.47,WSW,251,0.0,0.0,67,0.00,,---,0.00,VWS V13.01,2013-12-22 11:35:00,
2013-12-22 06:40:00,54.5,43.8,29.47,West,281,0.0,0.0,67,0.00,,---,0.00,VWS V13.01,2013-12-22 11:40:00,
2013-12-22 06:45:00,54.1,43.4,29.47,SW,234,0.0,0.0,67,0.00,,---,0.00,VWS V13.01,2013-12-22 11:45:00,
2013-12-22 06:50:00,53.8,43.1,29.47,South,191,0.0,0.0,67,0.00,,---,0.00,VWS V13.01,2013-12-22 11:50:00,
2013-12-22 06:55:00,53.8,43.5,29.47,South,187,0.0,0.0,68,0.00,,---,0.00,VWS V13.01,2013-12-22 11:55:00,
2013-12-22 07:01:00,53.8,43.5,29.47,South,180,0.0,0.0,68,0.00,,---,0.00,VWS V13.01,2013-12-22 12:01:00,
2013-12-22 07:06:00,54.1,43.8,29.47,South,186,0.0,0.0,68,0.00,,---,0.00,VWS V13.01,2013-12-22 12:06:00,
2013-12-22 07:11:00,54.0,43.7,29.47,West,280,0.0,0.0,68,0.00,,---,0.00,VWS V13.01,2013-12-22 12:11:00,
2013-12-22 07:16:00,53.4,43.5,29.47,SSW,206,0.0,0.0,69,0.00,,---,0.00,VWS V13.01,2013-12-22 12:16:00,
2013-12-22 07:21:00,54.0,44.0,29.47,SSW,210,0.0,0.0,69,0.00,,---,0.00,VWS V13.01,2013-12-22 12:21:00,
2013-12-22 07:26:00,54.0,44.0,29.47,West,274,0.0,0.0,69,0.00,,---,0.00,VWS V13.01,2013-12-22 12:26:00,
2013-12-22 07:31:00,54.1,44.6,29.50,WSW,237,0.0,0.0,70,0.00,,---,0.00,VWS V13.01,2013-12-22 12:31:00,
2013-12-22 07:36:00,54.1,44.6,29.50,SSW,196,0.0,0.0,70,0.00,,---,0.00,VWS V13.01,2013-12-22 12:36:00,
2013-12-22 07:41:00,54.1,44.6,29.50,SW,223,0.0,0.0,70,0.00,,---,0.00,VWS V13.01,2013-12-22 12:41:00,
2013-12-22 07:46:00,54.5,45.3,29.50,South,178,0.0,0.0,71,0.00,,---,0.00,VWS V13.01,2013-12-22 12:46:00,
2013-12-22 07:51:00,55.0,45.8,29.50,South,189,0.0,0.0,71,0.00,,---,0.00,VWS V13.01,2013-12-22 12:51:00,
2013-12-22 07:56:00,55.4,46.2,29.50,SE,144,0.0,0.0,71,0.00,,---,0.00,VWS V13.01,2013-12-22 12:56:00,
2013-12-22 08:02:00,55.4,46.2,29.50,West,265,0.0,0.0,71,0.00,,---,0.00,VWS V13.01,2013-12-22 13:02:00,
2013-12-22 08:07:00,55.2,46.4,29.50,WSW,237,0.0,0.0,72,0.00,,---,0.00,VWS V13.01,2013-12-22 13:07:00,
2013-12-22 08:12:00,55.6,46.7,29.50,SSE,154,0.0,0.0,72,0.00,,---,0.00,VWS V13.01,2013-12-22 13:12:00,
2013-12-22 08:17:00,55.9,47.1,29.50,SSW,208,0.0,0.0,72,0.00,,---,0.00,VWS V13.01,2013-12-22 13:17:00,
2013-12-22 08:22:00,55.9,47.1,29.50,SW,222,0.0,0.0,72,0.00,,---,0.00,VWS V13.01,2013-12-22 13:22:00,
2013-12-22 08:27:00,55.9,47.1,29.50,WSW,246,0.0,0.0,72,0.00,,---,0.00,VWS V13.01,2013-12-22 13:27:00,
2013-12-22 08:32:00,56.3,47.4,29.50,SW,233,0.0,0.0,72,0.00,,---,0.00,VWS V13.01,2013-12-22 13:32:00,
2013-12-22 08:37:00,56.5,47.6,29.50,WNW,286,0.0,0.0,72,0.00,,---,0.00,VWS V13.01,2013-12-22 13:37:00,
2013-12-22 08:42:00,56.5,47.6,29.50,WSW,245,0.0,0.0,72,0.00,,---,0.00,VWS V13.01,2013-12-22 13:42:00,
2013-12-22 08:47:00,56.8,48.3,29.50,SW,231,0.0,0.0,73,0.00,,---,0.00,VWS V13.01,2013-12-22 13:47:00,
2013-12-22 08:52:00,56.7,48.1,29.50,SSE,149,0.0,0.0,73,0.00,,---,0.00,VWS V13.01,2013-12-22 13:52:00,
2013-12-22 08:58:00,56.8,48.3,29.50,SSW,192,0.0,0.0,73,0.00,,---,0.00,VWS V13.01,2013-12-22 13:58:00,
2013-12-22 09:03:00,56.7,48.1,29.50,SW,215,0.0,0.0,73,0.00,,---,0.00,VWS V13.01,2013-12-22 14:03:00,
2013-12-22 09:08:00,57.2,48.6,29.50,West,280,0.0,0.0,73,0.00,,---,0.00,VWS V13.01,2013-12-22 14:08:00,
2013-12-22 09:13:00,57.4,48.8,29.50,South,188,0.0,0.0,73,0.00,,---,0.00,VWS V13.01,2013-12-22 14:13:00,
2013-12-22 09:18:00,57.4,48.8,29.50,South,171,0.0,0.0,73,0.00,,---,0.00,VWS V13.01,2013-12-22 14:18:00,
2013-12-22 09:23:00,57.6,49.0,29.50,SSW,199,0.0,0.0,73,0.00,,---,0.00,VWS V13.01,2013-12-22 14:23:00,
2013-12-22 09:28:00,57.6,49.0,29.50,SSW,197,0.0,0.0,73,0.00,,---,0.00,VWS V13.01,2013-12-22 14:28:00,
2013-12-22 09:33:00,57.6,49.0,29.53,WSW,245,0.0,0.0,73,0.00,,---,0.00,VWS V13.01,2013-12-22 14:33:00,
2013-12-22 09:38:00,57.4,48.8,29.53,WSW,243,0.0,0.0,73,0.00,,---,0.00,VWS V13.01,2013-12-22 14:38:00,
2013-12-22 09:43:00,57.2,48.6,29.53,SSW,193,0.0,0.0,73,0.00,,---,0.00,VWS V13.01,2013-12-22 14:43:00,
2013-12-22 09:48:00,57.2,48.6,29.53,SSE,163,0.0,0.0,73,0.00,,---,0.00,VWS V13.01,2013-12-22 14:48:00,
2013-12-22 09:54:00,57.2,48.6,29.53,SE,139,0.0,0.0,73,0.00,,---,0.00,VWS V13.01,2013-12-22 14:54:00,
2013-12-22 09:59:00,57.4,48.8,29.53,South,173,0.0,0.0,73,0.00,,---,0.00,VWS V13.01,2013-12-22 14:59:00,
2013-12-22 10:04:00,57.6,49.0,29.53,West,271,0.0,0.0,73,0.00,,---,0.00,VWS V13.01,2013-12-22 15:04:00,
2013-12-22 10:09:00,57.6,49.3,29.53,WSW,256,0.0,0.0,74,0.00,,---,0.00,VWS V13.01,2013-12-22 15:09:00,
2013-12-22 10:14:00,57.7,49.5,29.53,WSW,256,0.0,0.0,74,0.00,,---,0.00,VWS V13.01,2013-12-22 15:14:00,
2013-12-22 10:19:00,58.1,49.9,29.53,SSE,151,0.0,0.0,74,0.00,,---,0.00,VWS V13.01,2013-12-22 15:19:00,
2013-12-22 10:24:00,58.1,49.9,29.53,WSW,240,0.0,0.0,74,0.00,,---,0.00,VWS V13.01,2013-12-22 15:24:00,
2013-12-22 10:29:00,58.5,50.2,29.53,SW,236,0.0,0.0,74,0.00,,---,0.00,VWS V13.01,2013-12-22 15:29:00,
2013-12-22 10:34:00,58.6,50.4,29.53,WSW,239,0.0,0.0,74,0.00,,---,0.00,VWS V13.01,2013-12-22 15:34:00,
2013-12-22 10:39:00,58.8,50.6,29.53,SSE,160,0.0,0.0,74,0.00,,---,0.00,VWS V13.01,2013-12-22 15:39:00,
2013-12-22 10:44:00,59.4,51.1,29.56,WSW,255,0.0,0.0,74,0.00,,---,0.00,VWS V13.01,2013-12-22 15:44:00,
2013-12-22 10:49:00,59.5,47.8,29.56,SW,236,0.0,0.0,65,0.00,,---,0.00,VWS V13.01,2013-12-22 15:49:00,
2013-12-22 10:55:00,59.5,51.3,29.56,SSW,192,0.0,0.0,74,0.00,,---,0.00,VWS V13.01,2013-12-22 15:55:00,
2013-12-22 11:00:00,59.4,51.1,29.56,WSW,245,0.0,0.0,74,0.00,,---,0.00,VWS V13.01,2013-12-22 16:00:00,
2013-12-22 11:05:00,59.9,51.6,29.56,WSW,253,0.0,0.0,74,0.00,,---,0.00,VWS V13.01,2013-12-22 16:05:00,
2013-12-22 11:10:00,60.1,51.8,29.56,SW,226,0.0,0.0,74,0.00,,---,0.00,VWS V13.01,2013-12-22 16:10:00,
2013-12-22 11:15:00,59.7,51.4,29.56,SW,218,0.0,0.0,74,0.00,,---,0.00,VWS V13.01,2013-12-22 16:15:00,
2013-12-22 11:20:00,60.1,51.8,29.56,South,183,0.0,0.0,74,0.00,,---,0.00,VWS V13.01,2013-12-22 16:20:00,
2013-12-22 11:25:00,60.1,51.8,29.56,West,280,0.0,0.0,74,0.00,,---,0.00,VWS V13.01,2013-12-22 16:25:00,
2013-12-22 11:30:00,60.3,52.0,29.53,South,184,0.0,0.0,74,0.00,,---,0.00,VWS V13.01,2013-12-22 16:30:00,
2013-12-22 11:35:00,60.1,51.8,29.53,SW,233,0.0,0.0,74,0.00,,---,0.00,VWS V13.01,2013-12-22 16:35:00,
2013-12-22 11:40:00,60.4,52.1,29.53,SW,232,0.0,0.0,74,0.00,,---,0.00,VWS V13.01,2013-12-22 16:40:00,
2013-12-22 11:45:00,60.6,52.3,29.53,South,171,0.0,0.0,74,0.00,,---,0.00,VWS V13.01,2013-12-22 16:45:00,
2013-12-22 11:50:00,61.0,52.7,29.53,WSW,248,0.0,0.0,74,0.00,,---,0.00,VWS V13.01,2013-12-22 16:50:00,
2013-12-22 11:56:00,61.0,52.7,29.53,WSW,248,0.0,0.0,74,0.00,,---,0.00,VWS V13.01,2013-12-22 16:56:00,
2013-12-22 12:01:00,61.0,52.7,29.53,WSW,248,0.0,0.0,74,0.00,,---,0.00,VWS V13.01,2013-12-22 17:01:00,
2013-12-22 12:06:00,60.8,52.5,29.53,WSW,248,0.0,0.0,74,0.00,,---,0.00,VWS V13.01,2013-12-22 17:06:00,
2013-12-22 12:11:00,60.8,52.5,29.53,SSW,199,0.0,0.0,74,0.00,,---,0.00,VWS V13.01,2013-12-22 17:11:00,
2013-12-22 12:16:00,60.8,52.5,29.53,SSW,199,0.0,0.0,74,0.00,,---,0.00,VWS V13.01,2013-12-22 17:16:00,
2013-12-22 12:21:00,60.8,52.5,29.53,SSW,199,0.0,0.0,74,0.00,,---,0.00,VWS V13.01,2013-12-22 17:21:00,
2013-12-22 12:26:00,61.0,52.7,29.53,SW,226,0.0,0.0,74,0.00,,---,0.00,VWS V13.01,2013-12-22 17:26:00,
2013-12-22 12:31:00,61.0,52.7,29.53,SW,226,0.0,0.0,74,0.00,,---,0.00,VWS V13.01,2013-12-22 17:31:00,
2013-12-22 12:36:00,60.4,52.1,29.53,SW,226,0.0,0.0,74,0.00,,---,0.00,VWS V13.01,2013-12-22 17:36:00,
2013-12-22 12:41:00,60.3,52.0,29.53,SW,226,0.0,0.0,74,0.00,,---,0.00,VWS V13.01,2013-12-22 17:41:00,
2013-12-22 12:46:00,60.3,51.6,29.53,SW,226,0.0,0.0,73,0.00,,---,0.00,VWS V13.01,2013-12-22 17:46:00,
2013-12-22 12:51:00,60.3,51.6,29.53,South,185,0.0,0.0,73,0.00,,---,0.00,VWS V13.01,2013-12-22 17:51:00,
2013-12-22 12:57:00,60.3,51.6,29.53,South,185,0.0,0.0,73,0.00,,---,0.00,VWS V13.01,2013-12-22 17:57:00,
2013-12-22 13:02:00,61.5,52.8,29.50,South,170,0.0,0.0,73,0.00,,---,0.00,VWS V13.01,2013-12-22 18:02:00,
2013-12-22 13:07:00,61.7,52.6,29.50,WSW,244,0.0,0.0,72,0.00,,---,0.00,VWS V13.01,2013-12-22 18:07:00,
2013-12-22 13:12:00,62.1,52.6,29.50,SSE,166,0.0,0.0,71,0.00,,---,0.00,VWS V13.01,2013-12-22 18:12:00,
2013-12-22 13:17:00,62.1,52.2,29.50,SW,230,0.0,0.0,70,0.00,,---,0.00,VWS V13.01,2013-12-22 18:17:00,
2013-12-22 13:22:00,61.9,47.4,29.50,South,183,0.0,0.0,59,0.00,,---,0.00,VWS V13.01,2013-12-22 18:22:00,
2013-12-22 13:27:00,62.1,39.9,29.50,SSW,199,0.0,0.0,44,0.00,,---,0.00,VWS V13.01,2013-12-22 18:27:00,
2013-12-22 13:32:00,62.2,35.0,29.50,South,176,0.0,0.0,36,0.00,,---,0.00,VWS V13.01,2013-12-22 18:32:00,
2013-12-22 13:37:00,62.8,36.2,29.50,South,175,0.0,0.0,37,0.00,,---,0.00,VWS V13.01,2013-12-22 18:37:00,
2013-12-22 13:42:00,63.0,34.9,29.50,South,184,0.0,0.0,35,0.00,,---,0.00,VWS V13.01,2013-12-22 18:42:00,
2013-12-22 13:47:00,63.1,36.5,29.50,WSW,238,0.0,0.0,37,0.00,,---,0.00,VWS V13.01,2013-12-22 18:47:00,
2013-12-22 13:52:00,63.5,34.7,29.50,South,180,0.0,0.0,34,0.00,,---,0.00,VWS V13.01,2013-12-22 18:52:00,
2013-12-22 13:58:00,63.7,34.1,29.50,SSW,194,0.0,0.0,33,0.00,,---,0.00,VWS V13.01,2013-12-22 18:58:00,
2013-12-22 14:03:00,63.7,30.0,29.50,SSW,201,0.0,0.0,28,0.00,,---,0.00,VWS V13.01,2013-12-22 19:03:00,
2013-12-22 14:08:00,63.5,29.0,29.50,NNW,330,0.0,0.0,27,0.00,,---,0.00,VWS V13.01,2013-12-22 19:08:00,
2013-12-22 14:13:00,63.5,29.0,29.50,South,169,0.0,0.0,27,0.00,,---,0.00,VWS V13.01,2013-12-22 19:13:00,
2013-12-22 14:18:00,63.1,27.7,29.50,SE,141,0.0,0.0,26,0.00,,---,0.00,VWS V13.01,2013-12-22 19:18:00,
2013-12-22 14:23:00,63.1,27.7,29.50,SSW,199,0.0,0.0,26,0.00,,---,0.00,VWS V13.01,2013-12-22 19:23:00,
2013-12-22 14:28:00,62.8,27.4,29.50,SE,145,0.0,0.0,26,0.00,,---,0.00,VWS V13.01,2013-12-22 19:28:00,
2013-12-22 14:33:00,62.8,27.4,29.50,SSE,150,0.0,0.0,26,0.00,,---,0.00,VWS V13.01,2013-12-22 19:33:00,
2013-12-22 14:38:00,62.6,26.3,29.50,South,186,0.0,0.0,25,0.00,,---,0.00,VWS V13.01,2013-12-22 19:38:00,
2013-12-22 14:43:00,62.4,26.2,29.50,SSE,154,0.0,0.0,25,0.00,,---,0.00,VWS V13.01,2013-12-22 19:43:00,
2013-12-22 14:48:00,62.1,25.9,29.47,WSW,255,0.0,0.0,25,0.00,,---,0.00,VWS V13.01,2013-12-22 19:48:00,
2013-12-22 14:53:00,61.7,25.5,29.47,SSE,160,0.0,0.0,25,0.00,,---,0.00,VWS V13.01,2013-12-22 19:53:00,
2013-12-22 14:59:00,61.5,25.4,29.47,South,186,0.0,0.0,25,0.00,,---,0.00,VWS V13.01,2013-12-22 19:59:00,
2013-12-22 15:04:00,61.5,25.4,29.47,SSE,165,0.0,0.0,25,0.00,,---,0.00,VWS V13.01,2013-12-22 20:04:00,
2013-12-22 15:09:00,61.3,25.2,29.47,West,267,0.0,0.0,25,0.00,,---,0.00,VWS V13.01,2013-12-22 20:09:00,
2013-12-22 15:14:00,61.0,24.9,29.47,SSW,198,0.0,2.7,25,0.00,,---,0.00,VWS V13.01,2013-12-22 20:14:00,
2013-12-22 15:19:00,61.0,24.9,29.47,SE,143,0.0,2.7,25,0.00,,---,0.00,VWS V13.01,2013-12-22 20:19:00,
2013-12-22 15:24:00,60.6,25.6,29.47,SSE,168,0.0,0.0,26,0.00,,---,0.00,VWS V13.01,2013-12-22 20:24:00,
2013-12-22 15:29:00,60.3,26.2,29.47,SSE,152,0.0,0.0,27,0.00,,---,0.00,VWS V13.01,2013-12-22 20:29:00,
2013-12-22 15:34:00,60.3,27.9,29.47,SSW,206,0.0,0.0,29,0.00,,---,0.00,VWS V13.01,2013-12-22 20:34:00,
2013-12-22 15:39:00,60.3,27.9,29.47,South,191,0.0,3.1,29,0.00,,---,0.00,VWS V13.01,2013-12-22 20:39:00,
2013-12-22 15:44:00,60.3,28.7,29.44,WSW,258,0.0,0.0,30,0.00,,---,0.00,VWS V13.01,2013-12-22 20:44:00,
2013-12-22 15:49:00,60.3,28.7,29.44,South,188,0.0,3.1,30,0.00,,---,0.00,VWS V13.01,2013-12-22 20:49:00,
2013-12-22 15:55:00,60.1,30.1,29.44,SSW,194,2.7,3.1,32,0.00,,---,0.00,VWS V13.01,2013-12-22 20:55:00,
2013-12-22 16:00:00,60.1,30.1,29.44,SE,139,3.6,7.8,32,0.00,,---,0.00,VWS V13.01,2013-12-22 21:00:00,
2013-12-22 16:05:00,60.1,30.1,29.44,ESE,114,0.0,12.5,32,0.00,,---,0.00,VWS V13.01,2013-12-22 21:05:00,
2013-12-22 16:10:00,60.1,30.1,29.44,South,175,0.0,12.5,32,0.00,,---,0.00,VWS V13.01,2013-12-22 21:10:00,
2013-12-22 16:15:00,59.9,30.0,29.47,SSW,212,0.0,12.5,32,0.00,,---,0.00,VWS V13.01,2013-12-22 21:15:00,
2013-12-22 16:20:00,59.7,30.6,29.47,South,186,3.6,3.6,33,0.00,,---,0.00,VWS V13.01,2013-12-22 21:20:00,
2013-12-22 16:25:00,59.7,31.3,29.47,SW,223,0.0,8.3,34,0.00,,---,0.00,VWS V13.01,2013-12-22 21:25:00,
2013-12-22 16:29:00,59.7,31.3,29.50,SSW,202,0.0,9.4,34,0.00,,---,0.00,VWS V13.01,2013-12-22 21:29:00,
2013-12-22 16:34:00,59.7,31.3,29.50,SSW,194,0.0,9.4,34,0.00,,---,0.00,VWS V13.01,2013-12-22 21:34:00,
2013-12-22 16:39:00,59.7,31.3,29.50,South,191,0.0,9.4,34,0.00,,---,0.00,VWS V13.01,2013-12-22 21:39:00,
2013-12-22 16:45:00,59.7,29.8,29.50,SSW,206,17.9,17.9,32,0.00,,---,0.00,VWS V13.01,2013-12-22 21:45:00,
2013-12-22 16:50:00,59.9,27.6,29.50,SSW,206,0.0,17.9,29,0.00,,---,0.00,VWS V13.01,2013-12-22 21:50:00,
2013-12-22 16:55:00,60.1,26.9,29.50,WSW,257,0.0,17.9,28,0.00,,---,0.00,VWS V13.01,2013-12-22 21:55:00,
2013-12-22 17:00:00,59.9,25.9,29.50,South,181,0.0,0.0,27,0.00,,---,0.00,VWS V13.01,2013-12-22 22:00:00,
2013-12-22 17:05:00,60.1,25.1,29.50,West,267,0.0,6.9,26,0.00,,---,0.00,VWS V13.01,2013-12-22 22:05:00,
2013-12-22 17:10:00,60.3,25.3,29.50,SSW,205,0.0,6.9,26,0.00,,---,0.00,VWS V13.01,2013-12-22 22:10:00,
2013-12-22 17:15:00,60.4,24.5,29.53,WNW,285,0.0,6.9,25,0.00,,---,0.00,VWS V13.01,2013-12-22 22:15:00,
2013-12-22 17:20:00,60.4,24.5,29.53,West,276,0.0,11.2,25,0.00,,---,0.00,VWS V13.01,2013-12-22 22:20:00,
2013-12-22 17:25:00,60.4,23.5,29.53,SSW,203,0.0,11.2,24,0.00,,---,0.00,VWS V13.01,2013-12-22 22:25:00,
2013-12-22 17:30:00,60.4,23.5,29.53,SSW,211,0.0,11.2,24,0.00,,---,0.00,VWS V13.01,2013-12-22 22:30:00,
2013-12-22 17:35:00,60.6,23.6,29.53,South,172,0.0,11.2,24,0.00,,---,0.00,VWS V13.01,2013-12-22 22:35:00,
2013-12-22 17:40:00,60.4,23.5,29.53,SE,136,0.0,0.0,24,0.00,,---,0.00,VWS V13.01,2013-12-22 22:40:00,
2013-12-22 17:46:00,60.1,23.2,29.53,NW,317,0.0,8.3,24,0.00,,---,0.00,VWS V13.01,2013-12-22 22:46:00,
2013-12-22 17:51:00,59.9,23.0,29.53,West,266,0.0,8.3,24,0.00,,---,0.00,VWS V13.01,2013-12-22 22:51:00,
2013-12-22 17:56:00,59.7,22.9,29.53,NNW,333,0.0,8.3,24,0.00,,---,0.00,VWS V13.01,2013-12-22 22:56:00,
2013-12-22 18:01:00,59.7,22.9,29.56,WNW,286,0.0,0.0,24,0.00,,---,0.00,VWS V13.01,2013-12-22 23:01:00,
2013-12-22 18:06:00,59.7,22.9,29.56,WSW,247,0.0,0.0,24,0.00,,---,0.00,VWS V13.01,2013-12-22 23:06:00,
2013-12-22 18:11:00,59.7,22.9,29.56,West,268,0.0,0.0,24,0.00,,---,0.00,VWS V13.01,2013-12-22 23:11:00,
2013-12-22 18:16:00,59.5,22.7,29.56,West,272,0.0,0.0,24,0.00,,---,0.00,VWS V13.01,2013-12-22 23:16:00,
2013-12-22 18:21:00,59.0,22.3,29.56,West,271,0.0,0.0,24,0.00,,---,0.00,VWS V13.01,2013-12-22 23:21:00,
2013-12-22 18:26:00,58.8,23.1,29.56,SSW,193,0.0,0.0,25,0.00,,---,0.00,VWS V13.01,2013-12-22 23:26:00,
2013-12-22 18:31:00,59.0,23.2,29.53,WSW,251,0.0,0.0,25,0.00,,---,0.00,VWS V13.01,2013-12-22 23:31:00,
2013-12-22 18:36:00,59.2,23.4,29.53,SSE,159,0.0,0.0,25,0.00,,---,0.00,VWS V13.01,2013-12-22 23:36:00,
2013-12-22 18:42:00,59.7,23.9,29.53,West,272,0.0,0.0,25,0.00,,---,0.00,VWS V13.01,2013-12-22 23:42:00,
2013-12-22 18:47:00,59.9,24.0,29.53,SW,226,0.0,0.0,25,0.00,,---,0.00,VWS V13.01,2013-12-22 23:47:00,
2013-12-22 18:52:00,59.9,24.0,29.53,West,267,0.0,0.0,25,0.00,,---,0.00,VWS V13.01,2013-12-22 23:52:00,
2013-12-22 18:57:00,59.7,23.9,29.53,SW,232,0.0,0.0,25,0.00,,---,0.00,VWS V13.01,2013-12-22 23:57:00,
2013-12-22 19:02:00,59.5,23.7,29.56,WSW,242,0.0,0.0,25,0.00,,---,0.00,VWS V13.01,2013-12-23 00:02:00,
2013-12-22 19:07:00,59.2,23.4,29.56,WSW,257,0.0,0.0,25,0.00,,---,0.00,VWS V13.01,2013-12-23 00:07:00,
2013-12-22 19:12:00,58.8,24.0,29.56,WSW,257,0.0,0.0,26,0.00,,---,0.00,VWS V13.01,2013-12-23 00:12:00,
2013-12-22 19:17:00,59.0,24.2,29.56,ESE,121,0.0,0.0,26,0.00,,---,0.00,VWS V13.01,2013-12-23 00:17:00,
2013-12-22 19:22:00,58.6,23.9,29.56,SE,143,0.0,0.0,26,0.00,,---,0.00,VWS V13.01,2013-12-23 00:22:00,
2013-12-22 19:27:00,58.3,23.6,29.56,SW,236,0.0,0.0,26,0.00,,---,0.00,VWS V13.01,2013-12-23 00:27:00,
2013-12-22 19:32:00,57.9,24.2,29.56,SW,219,0.0,0.0,27,0.00,,---,0.00,VWS V13.01,2013-12-23 00:32:00,
2013-12-22 19:37:00,58.1,26.0,29.56,SSE,158,0.0,0.0,29,0.00,,---,0.00,VWS V13.01,2013-12-23 00:37:00,
2013-12-22 19:43:00,58.1,25.2,29.56,WSW,240,0.0,0.0,28,0.00,,---,0.00,VWS V13.01,2013-12-23 00:43:00,
2013-12-22 19:48:00,58.1,26.0,29.56,SSW,194,0.0,0.0,29,0.00,,---,0.00,VWS V13.01,2013-12-23 00:48:00,
2013-12-22 19:53:00,58.1,25.2,29.56,WSW,250,0.0,0.0,28,0.00,,---,0.00,VWS V13.01,2013-12-23 00:53:00,
2013-12-22 19:58:00,57.9,25.0,29.56,WSW,250,0.0,0.0,28,0.00,,---,0.00,VWS V13.01,2013-12-23 00:58:00,
2013-12-22 20:03:00,57.7,25.7,29.56,WSW,250,0.0,0.0,29,0.00,,---,0.00,VWS V13.01,2013-12-23 01:03:00,
2013-12-22 20:08:00,57.6,26.4,29.56,WSW,249,0.0,0.0,30,0.00,,---,0.00,VWS V13.01,2013-12-23 01:08:00,
2013-12-22 20:13:00,57.6,25.6,29.56,ENE,73,0.0,0.0,29,0.00,,---,0.00,VWS V13.01,2013-12-23 01:13:00,
2013-12-22 20:18:00,57.7,26.5,29.56,West,260,0.0,0.0,30,0.00,,---,0.00,VWS V13.01,2013-12-23 01:18:00,
2013-12-22 20:23:00,57.9,25.9,29.56,SW,236,0.0,0.0,29,0.00,,---,0.00,VWS V13.01,2013-12-23 01:23:00,
2013-12-22 20:28:00,58.1,26.0,29.56,SW,224,0.0,0.0,29,0.00,,---,0.00,VWS V13.01,2013-12-23 01:28:00,
2013-12-22 20:33:00,57.9,25.0,29.59,SSW,199,0.0,0.0,28,0.00,,---,0.00,VWS V13.01,2013-12-23 01:33:00,
2013-12-22 20:38:00,57.9,25.9,29.59,WSW,243,0.0,0.0,29,0.00,,---,0.00,VWS V13.01,2013-12-23 01:38:00,
2013-12-22 20:44:00,57.9,25.0,29.59,SSW,196,0.0,0.0,28,0.00,,---,0.00,VWS V13.01,2013-12-23 01:44:00,
2013-12-22 20:49:00,57.7,25.7,29.59,SW,230,0.0,0.0,29,0.00,,---,0.00,VWS V13.01,2013-12-23 01:49:00,
2013-12-22 20:54:00,57.9,25.0,29.59,South,172,0.0,0.0,28,0.00,,---,0.00,VWS V13.01,2013-12-23 01:54:00,
2013-12-22 20:59:00,57.9,25.9,29.59,West,274,0.0,0.0,29,0.00,,---,0.00,VWS V13.01,2013-12-23 01:59:00,
2013-12-22 21:04:00,57.7,24.9,29.59,WSW,238,0.0,0.0,28,0.00,,---,0.00,VWS V13.01,2013-12-23 02:04:00,
2013-12-22 21:09:00,57.6,24.7,29.59,South,183,0.0,0.0,28,0.00,,---,0.00,VWS V13.01,2013-12-23 02:09:00,
2013-12-22 21:14:00,57.6,25.6,29.59,South,186,0.0,0.0,29,0.00,,---,0.00,VWS V13.01,2013-12-23 02:14:00,
2013-12-22 21:19:00,57.6,25.6,29.59,WSW,257,0.0,0.0,29,0.00,,---,0.00,VWS V13.01,2013-12-23 02:19:00,
2013-12-22 21:24:00,57.2,25.2,29.59,WSW,257,0.0,0.0,29,0.00,,---,0.00,VWS V13.01,2013-12-23 02:24:00,
2013-12-22 21:29:00,57.2,25.2,29.62,West,259,0.0,0.0,29,0.00,,---,0.00,VWS V13.01,2013-12-23 02:29:00,
2013-12-22 21:34:00,57.2,26.1,29.62,SE,146,0.0,0.0,30,0.00,,---,0.00,VWS V13.01,2013-12-23 02:34:00,
2013-12-22 21:39:00,56.8,24.9,29.62,West,272,0.0,0.0,29,0.00,,---,0.00,VWS V13.01,2013-12-23 02:39:00,
2013-12-22 21:45:00,56.8,24.9,29.59,West,272,0.0,0.0,29,0.00,,---,0.00,VWS V13.01,2013-12-23 02:45:00,
2013-12-22 21:50:00,56.5,26.2,29.59,West,272,0.0,0.0,31,0.00,,---,0.00,VWS V13.01,2013-12-23 02:50:00,
2013-12-22 21:55:00,56.3,26.1,29.59,West,272,0.0,0.0,31,0.00,,---,0.00,VWS V13.01,2013-12-23 02:55:00,
2013-12-22 22:00:00,56.1,25.9,29.59,West,272,0.0,0.0,31,0.00,,---,0.00,VWS V13.01,2013-12-23 03:00:00,
2013-12-22 22:05:00,55.9,26.5,29.59,West,272,0.0,0.0,32,0.00,,---,0.00,VWS V13.01,2013-12-23 03:05:00,
2013-12-22 22:10:00,55.6,25.5,29.59,West,272,0.0,0.0,31,0.00,,---,0.00,VWS V13.01,2013-12-23 03:10:00,
2013-12-22 22:15:00,55.4,27.5,29.59,West,272,0.0,0.0,34,0.00,,---,0.00,VWS V13.01,2013-12-23 03:15:00,
2013-12-22 22:20:00,55.4,27.5,29.59,West,272,0.0,0.0,34,0.00,,---,0.00,VWS V13.01,2013-12-23 03:20:00,
2013-12-22 22:25:00,55.4,28.2,29.59,West,272,0.0,0.0,35,0.00,,---,0.00,VWS V13.01,2013-12-23 03:25:00,
2013-12-22 22:30:00,55.6,28.4,29.62,West,272,0.0,0.0,35,0.00,,---,0.00,VWS V13.01,2013-12-23 03:30:00,
2013-12-22 22:35:00,55.9,28.7,29.62,West,272,0.0,0.0,35,0.00,,---,0.00,VWS V13.01,2013-12-23 03:35:00,
2013-12-22 22:40:00,55.8,28.5,29.62,West,272,0.0,0.0,35,0.00,,---,0.00,VWS V13.01,2013-12-23 03:40:00,
2013-12-22 22:46:00,55.6,28.4,29.59,West,272,0.0,0.0,35,0.00,,---,0.00,VWS V13.01,2013-12-23 03:46:00,
2013-12-22 22:51:00,55.6,28.4,29.59,West,272,0.0,0.0,35,0.00,,---,0.00,VWS V13.01,2013-12-23 03:51:00,
2013-12-22 22:56:00,55.6,28.4,29.59,West,272,0.0,0.0,35,0.00,,---,0.00,VWS V13.01,2013-12-23 03:56:00,
2013-12-22 23:01:00,55.6,28.4,29.59,West,272,0.0,0.0,35,0.00,,---,0.00,VWS V13.01,2013-12-23 04:01:00,
2013-12-22 23:06:00,55.4,28.2,29.59,West,272,0.0,0.0,35,0.00,,---,0.00,VWS V13.01,2013-12-23 04:06:00,
2013-12-22 23:11:00,55.0,27.9,29.59,West,272,0.0,0.0,35,0.00,,---,0.00,VWS V13.01,2013-12-23 04:11:00,
2013-12-22 23:16:00,55.0,27.9,29.59,West,272,0.0,0.0,35,0.00,,---,0.00,VWS V13.01,2013-12-23 04:16:00,
2013-12-22 23:21:00,54.9,27.8,29.59,West,272,0.0,0.0,35,0.00,,---,0.00,VWS V13.01,2013-12-23 04:21:00,
2013-12-22 23:26:00,54.9,28.4,29.59,West,272,0.0,0.0,36,0.00,,---,0.00,VWS V13.01,2013-12-23 04:26:00,
2013-12-22 23:31:00,54.5,28.1,29.59,West,272,0.0,0.0,36,0.00,,---,0.00,VWS V13.01,2013-12-23 04:31:00,
2013-12-22 23:36:00,54.5,28.1,29.59,West,272,0.0,0.0,36,0.00,,---,0.00,VWS V13.01,2013-12-23 04:36:00,
2013-12-22 23:41:00,54.5,28.1,29.59,West,272,0.0,0.0,36,0.00,,---,0.00,VWS V13.01,2013-12-23 04:41:00,
2013-12-22 23:47:00,54.5,28.1,29.59,West,272,0.0,0.0,36,0.00,,---,0.00,VWS V13.01,2013-12-23 04:47:00,
2013-12-22 23:52:00,54.5,28.1,29.59,West,272,0.0,0.0,36,0.00,,---,0.00,VWS V13.01,2013-12-23 04:52:00,
2013-12-22 23:57:00,54.3,28.6,29.59,West,272,0.0,0.0,37,0.00,,---,0.00,VWS V13.01,2013-12-23 04:57:00,